| time (UTC) | temp C | wind direction | speed KPH | gust KPH | rain 1hr cm | rain 24hr cm | rain mn cm | humidity % | barometer mb |
| 20260503202809 | 13 | 317 | 8.0 | 19.3 | 0.00 | 1.27 | 1.27 | 86 | 1012.5 |
| 20260503201308 | 13 | 327 | 11.3 | 20.9 | 0.00 | 1.27 | 1.27 | 86 | 1012.4 |
| 20260503200806 | 13 | 310 | 9.7 | 17.7 | 0.00 | 1.27 | 1.27 | 86 | 1012.3 |
| 20260503200307 | 13 | 331 | 9.7 | 20.9 | 0.00 | 1.27 | 1.27 | 86 | 1012.3 |
| 20260503195806 | 13 | 328 | 9.7 | 20.9 | 0.00 | 1.27 | 1.27 | 86 | 1012.2 |
| 20260503195306 | 13 | 310 | 9.7 | 19.3 | 0.00 | 1.27 | 1.27 | 86 | 1012.1 |
| 20260503194806 | 13 | 321 | 8.0 | 19.3 | 0.00 | 1.27 | 1.27 | 86 | 1012.1 |
| 20260503194305 | 13 | 323 | 8.0 | 19.3 | 0.00 | 1.27 | 1.27 | 87 | 1012.1 |
| 20260503193806 | 13 | 333 | 8.0 | 19.3 | 0.00 | 1.27 | 1.27 | 86 | 1012.0 |
| 20260503193306 | 13 | 342 | 9.7 | 19.3 | 0.00 | 1.27 | 1.27 | 86 | 1011.9 |
| 20260503192807 | 14 | 302 | 11.3 | 24.1 | 0.00 | 1.27 | 1.27 | 86 | 1011.9 |
| 20260503192307 | 14 | 331 | 11.3 | 24.1 | 0.00 | 1.27 | 1.27 | 87 | 1011.9 |
| 20260503191806 | 14 | 306 | 11.3 | 22.5 | 0.00 | 1.27 | 1.27 | 87 | 1012.0 |
| 20260503191306 | 14 | 322 | 9.7 | 22.5 | 0.00 | 1.27 | 1.27 | 87 | 1011.8 |
| 20260503190801 | 14 | 320 | 9.7 | 22.5 | 0.00 | 1.27 | 1.27 | 87 | 1011.8 |
| 20260503185748 | 14 | 312 | 6.4 | 16.1 | 0.00 | 1.27 | 1.27 | 88 | 1011.7 |
| 20260503185243 | 14 | 330 | 6.4 | 19.3 | 0.00 | 1.27 | 1.27 | 88 | 1011.7 |
| 20260503184736 | 14 | 336 | 8.0 | 19.3 | 0.00 | 1.27 | 1.27 | 88 | 1011.7 |
| 20260503184235 | 14 | 321 | 6.4 | 22.5 | 0.00 | 1.27 | 1.27 | 89 | 1011.8 |
| 20260503183735 | 14 | 334 | 6.4 | 22.5 | 0.00 | 1.27 | 1.27 | 89 | 1011.6 |
| 20260503183234 | 14 | 327 | 4.8 | 17.7 | 0.00 | 1.27 | 1.27 | 90 | 1011.7 |
| 20260503182735 | 14 | 342 | 4.8 | 16.1 | 0.00 | 1.27 | 1.27 | 90 | 1011.7 |
| 20260503182235 | 14 | 342 | 6.4 | 17.7 | 0.00 | 1.27 | 1.27 | 90 | 1011.7 |
| 20260503175734 | 14 | 323 | 4.8 | 16.1 | 0.00 | 1.27 | 1.27 | 92 | 1011.7 |
| 20260503175234 | 15 | 321 | 1.6 | 16.1 | 0.00 | 1.27 | 1.27 | 92 | 1011.7 |
| 20260503174735 | 15 | 344 | 1.6 | 14.5 | 0.00 | 1.27 | 1.27 | 92 | 1011.8 |
| 20260503174234 | 15 | 302 | 3.2 | 14.5 | 0.00 | 1.27 | 1.27 | 93 | 1011.8 |
| 20260503173733 | 14 | 316 | 3.2 | 12.9 | 0.00 | 1.27 | 1.27 | 93 | 1011.8 |
| 20260503173234 | 14 | 340 | 3.2 | 16.1 | 0.00 | 1.27 | 1.27 | 93 | 1011.9 |
| 20260503172736 | 14 | 328 | 3.2 | 16.1 | 0.00 | 1.27 | 1.27 | 92 | 1011.8 |
| 20260503172236 | 14 | 306 | 3.2 | 16.1 | 0.00 | 1.27 | 1.27 | 92 | 1011.8 |
| 20260503171734 | 14 | 355 | 3.2 | 16.1 | 0.00 | 1.27 | 1.27 | 93 | 1011.8 |
| 20260503171234 | 14 | 338 | 3.2 | 16.1 | 0.03 | 1.27 | 1.27 | 93 | 1011.8 |
| 20260503170733 | 15 | 324 | 3.2 | 14.5 | 0.03 | 1.27 | 1.27 | 93 | 1011.8 |
| 20260503170234 | 15 | 317 | 3.2 | 14.5 | 0.03 | 1.27 | 1.27 | 93 | 1011.7 |
| 20260503150234 | 15 | 273 | 12.9 | 37.0 | 0.15 | 0.91 | 0.91 | 87 | 1012.0 |
| 20260503140234 | 15 | 344 | 11.3 | 19.3 | 0.03 | 0.76 | 0.76 | 91 | 1012.0 |
| 20260503130734 | 15 | 297 | 1.6 | 16.1 | 0.61 | 0.74 | 0.74 | 90 | 1012.2 |
| 20260503130234 | 15 | 309 | 3.2 | 16.1 | 0.61 | 0.74 | 0.71 | 90 | 1012.3 |
| 20260503110734 | 17 | 287 | 12.9 | 19.3 | 0.00 | 0.13 | 0.13 | 89 | 1012.4 |
| 20260503110247 | 16 | 298 | 11.3 | 19.3 | 0.00 | 0.13 | 0.13 | 90 | 1012.4 |
| 20260503100232 | 15 | 244 | 9.7 | 16.1 | 0.00 | 0.13 | 0.13 | 93 | 1012.4 |
| 20260503090231 | 15 | 223 | 9.7 | 19.3 | 0.00 | 0.43 | 0.13 | 95 | 1012.2 |
| 20260503080732 | 13 | 165 | 0.0 | 0.0 | 0.00 | 0.61 | 0.13 | 95 | 1012.0 |
| 20260503080230 | 13 | 140 | 0.0 | 0.0 | 0.00 | 0.61 | 0.13 | 95 | 1012.0 |
| 20260503072721 | 13 | 136 | 0.0 | 0.0 | 0.10 | 0.61 | 0.13 | 95 | 1011.9 |
| 20260503072220 | 13 | 136 | 0.0 | 0.0 | 0.10 | 0.61 | 0.13 | 95 | 1011.9 |
| 20260503071718 | 13 | 136 | 0.0 | 0.0 | 0.10 | 0.61 | 0.13 | 95 | 1011.9 |
| 20260503071216 | 12 | 136 | 0.0 | 0.0 | 0.10 | 0.61 | 0.13 | 95 | 1011.9 |
| 20260503070716 | 12 | 136 | 0.0 | 0.0 | 0.10 | 0.61 | 0.13 | 95 | 1011.8 |
| 20260503070220 | 12 | 136 | 0.0 | 0.0 | 0.10 | 0.61 | 0.13 | 95 | 1011.8 |
| 20260503060207 | 12 | 136 | 0.0 | 0.0 | 0.03 | 0.56 | 0.03 | 95 | 1011.5 |
| 20260503054708 | 12 | 136 | 0.0 | 0.0 | 0.03 | 0.56 | 0.03 | 94 | 1011.5 |
| 20260503054208 | 12 | 136 | 0.0 | 0.0 | 0.03 | 0.56 | 0.03 | 95 | 1011.5 |
| 20260503053709 | 12 | 136 | 0.0 | 0.0 | 0.03 | 0.58 | 0.03 | 95 | 1011.4 |
| 20260503053207 | 12 | 136 | 0.0 | 0.0 | 0.03 | 0.58 | 0.03 | 95 | 1011.4 |
| 20260503052707 | 12 | 136 | 0.0 | 0.0 | 0.00 | 0.56 | 0.00 | 95 | 1011.5 |
| 20260503052207 | 12 | 136 | 0.0 | 0.0 | 0.00 | 0.56 | 0.00 | 95 | 1011.4 |
| 20260503051707 | 12 | 136 | 0.0 | 0.0 | 0.00 | 0.58 | 0.00 | 95 | 1011.4 |
| 20260503051207 | 12 | 136 | 0.0 | 0.0 | 0.00 | 0.58 | 0.00 | 95 | 1011.4 |
| 20260503050708 | 12 | 136 | 0.0 | 0.0 | 0.00 | 0.58 | 0.00 | 94 | 1011.5 |
| 20260503050207 | 12 | 136 | 0.0 | 0.0 | 0.00 | 0.58 | 0.00 | 94 | 1011.4 |
| 20260503045707 | 12 | 136 | 0.0 | 0.0 | 0.00 | 0.58 | 0.00 | 94 | 1011.4 |
| 20260503044708 | 12 | 136 | 0.0 | 0.0 | 0.00 | 0.58 | 0.00 | 94 | 1011.5 |
| 20260503044208 | 12 | 136 | 0.0 | 0.0 | 0.00 | 0.58 | 0.00 | 95 | 1011.5 |
| 20260503043707 | 12 | 136 | 0.0 | 0.0 | 0.00 | 0.58 | 0.00 | 94 | 1011.3 |
| 20260503043207 | 12 | 136 | 0.0 | 0.0 | 0.00 | 0.58 | 0.00 | 94 | 1011.3 |
| 20260503042709 | 12 | 136 | 0.0 | 0.0 | 0.00 | 0.58 | 0.00 | 94 | 1011.3 |
| 20260503042207 | 12 | 136 | 0.0 | 0.0 | 0.00 | 0.58 | 0.00 | 94 | 1011.3 |
| 20260503041720 | 12 | 136 | 0.0 | 0.0 | 0.00 | 0.58 | 0.00 | 94 | 1011.3 |
| 20260503035707 | 12 | 136 | 0.0 | 0.0 | 0.00 | 0.58 | 0.00 | 94 | 1011.5 |
| 20260503035207 | 12 | 136 | 0.0 | 0.0 | 0.00 | 0.58 | 0.00 | 94 | 1011.4 |
| 20260503034708 | 12 | 136 | 0.0 | 0.0 | 0.00 | 0.58 | 0.00 | 94 | 1011.5 |
| 20260503034207 | 12 | 136 | 0.0 | 0.0 | 0.00 | 0.58 | 0.00 | 94 | 1011.5 |
| 20260503033207 | 12 | 136 | 0.0 | 0.0 | 0.00 | 0.58 | 0.00 | 94 | 1011.5 |
| 20260503032707 | 12 | 136 | 0.0 | 0.0 | 0.00 | 0.58 | 0.00 | 94 | 1011.6 |
| 20260503032209 | 12 | 136 | 0.0 | 0.0 | 0.00 | 0.58 | 0.00 | 94 | 1011.7 |
| 20260503031707 | 13 | 136 | 0.0 | 0.0 | 0.00 | 0.58 | 0.00 | 94 | 1011.6 |
| 20260503031208 | 13 | 136 | 0.0 | 0.0 | 0.00 | 0.58 | 0.00 | 94 | 1011.7 |
| 20260503030708 | 13 | 136 | 0.0 | 0.0 | 0.00 | 0.58 | 0.00 | 94 | 1011.6 |
| 20260503030207 | 13 | 136 | 0.0 | 0.0 | 0.00 | 0.58 | 0.00 | 94 | 1011.7 |
| 20260503025708 | 13 | 136 | 0.0 | 0.0 | 0.00 | 0.58 | 0.00 | 94 | 1011.8 |
| 20260503025207 | 13 | 136 | 0.0 | 0.0 | 0.00 | 0.58 | 0.00 | 94 | 1011.7 |
| 20260503024707 | 13 | 136 | 0.0 | 0.0 | 0.00 | 0.58 | 0.00 | 94 | 1011.8 |
| 20260503024207 | 13 | 136 | 0.0 | 0.0 | 0.00 | 0.58 | 0.00 | 94 | 1011.8 |
| 20260503023705 | 13 | 136 | 0.0 | 0.0 | 0.00 | 0.58 | 0.00 | 94 | 1011.7 |
| 20260503022705 | 13 | 136 | 0.0 | 0.0 | 0.00 | 0.58 | 0.00 | 94 | 1011.7 |
| 20260503021706 | 13 | 136 | 0.0 | 0.0 | 0.00 | 0.58 | 0.00 | 94 | 1011.8 |
| 20260503021206 | 13 | 136 | 0.0 | 0.0 | 0.00 | 0.58 | 0.00 | 94 | 1011.8 |
| 20260503020707 | 13 | 136 | 0.0 | 0.0 | 0.00 | 0.58 | 0.00 | 94 | 1011.8 |
| 20260503020206 | 13 | 136 | 0.0 | 0.0 | 0.00 | 0.58 | 0.00 | 93 | 1011.8 |
| 20260503015705 | 13 | 136 | 0.0 | 0.0 | 0.00 | 0.58 | 0.00 | 93 | 1011.8 |
| 20260503015205 | 13 | 136 | 0.0 | 0.0 | 0.00 | 0.58 | 0.00 | 94 | 1011.9 |
| 20260503014206 | 13 | 136 | 0.0 | 0.0 | 0.00 | 0.58 | 0.00 | 93 | 1012.0 |
| 20260503013707 | 13 | 136 | 0.0 | 0.0 | 0.00 | 0.58 | 0.00 | 93 | 1011.9 |
| 20260503013206 | 13 | 304 | 0.0 | 0.0 | 0.00 | 0.58 | 0.00 | 94 | 1011.9 |
| 20260503012706 | 13 | 291 | 0.0 | 0.0 | 0.00 | 0.58 | 0.00 | 93 | 1012.0 |
| 20260503012206 | 13 | 207 | 0.0 | 0.0 | 0.00 | 0.58 | 0.00 | 93 | 1012.1 |
| 20260503011706 | 13 | 207 | 0.0 | 0.0 | 0.00 | 0.58 | 0.00 | 93 | 1012.2 |
| 20260503011210 | 13 | 207 | 0.0 | 0.0 | 0.00 | 0.58 | 0.00 | 93 | 1012.2 |
| 20260503010709 | 13 | 208 | 0.0 | 0.0 | 0.00 | 0.58 | 0.00 | 93 | 1012.3 |
| 20260503005207 | 13 | 198 | 0.0 | 0.0 | 0.00 | 0.58 | 0.00 | 93 | 1012.4 |
| 20260503004707 | 13 | 197 | 0.0 | 0.0 | 0.00 | 0.58 | 0.00 | 93 | 1012.4 |
| 20260503004208 | 13 | 196 | 0.0 | 0.0 | 0.00 | 0.58 | 0.00 | 93 | 1012.4 |
| 20260503003720 | 13 | 196 | 0.0 | 0.0 | 0.00 | 0.58 | 0.00 | 93 | 1012.5 |
| 20260503003208 | 13 | 196 | 0.0 | 0.0 | 0.00 | 0.58 | 0.00 | 93 | 1012.5 |
| 20260503002708 | 13 | 196 | 0.0 | 0.0 | 0.00 | 0.58 | 0.00 | 93 | 1012.5 |
| 20260503002208 | 13 | 196 | 0.0 | 0.0 | 0.00 | 0.58 | 0.00 | 93 | 1012.5 |
| 20260503001207 | 13 | 215 | 0.0 | 0.0 | 0.00 | 0.58 | 0.00 | 93 | 1012.5 |
| 20260503000707 | 13 | 215 | 0.0 | 0.0 | 0.00 | 0.58 | 0.00 | 93 | 1012.6 |
| 20260502235204 | 13 | 215 | 0.0 | 0.0 | 0.00 | 0.58 | 0.00 | 92 | 1012.7 |
| 20260502234703 | 13 | 215 | 0.0 | 0.0 | 0.00 | 0.58 | 0.00 | 92 | 1012.8 |
| 20260502234204 | 14 | 215 | 0.0 | 0.0 | 0.00 | 0.58 | 0.00 | 92 | 1012.8 |
| 20260502233704 | 14 | 215 | 0.0 | 0.0 | 0.00 | 0.58 | 0.00 | 92 | 1012.9 |
| 20260502233204 | 14 | 215 | 0.0 | 0.0 | 0.00 | 0.58 | 0.00 | 92 | 1012.9 |
| 20260502232703 | 14 | 215 | 0.0 | 0.0 | 0.00 | 0.58 | 0.00 | 92 | 1013.0 |
| 20260502232203 | 14 | 215 | 0.0 | 0.0 | 0.00 | 0.58 | 0.00 | 92 | 1013.0 |
| 20260502231704 | 14 | 215 | 0.0 | 0.0 | 0.00 | 0.58 | 0.00 | 92 | 1013.0 |
| 20260502230705 | 14 | 215 | 0.0 | 0.0 | 0.00 | 0.58 | 0.00 | 92 | 1013.1 |
| 20260502230205 | 14 | 215 | 0.0 | 0.0 | 0.00 | 0.58 | 0.00 | 92 | 1013.1 |
| 20260502225705 | 14 | 214 | 0.0 | 0.0 | 0.00 | 0.58 | 0.58 | 92 | 1013.0 |
| 20260502225205 | 14 | 214 | 0.0 | 0.0 | 0.00 | 0.58 | 0.58 | 92 | 1013.0 |
| 20260502224704 | 14 | 214 | 0.0 | 0.0 | 0.00 | 0.58 | 0.58 | 92 | 1013.1 |
| 20260502224204 | 14 | 214 | 0.0 | 0.0 | 0.00 | 0.58 | 0.58 | 92 | 1013.1 |
| 20260502223705 | 14 | 214 | 0.0 | 0.0 | 0.00 | 0.58 | 0.58 | 92 | 1013.1 |
| 20260502223205 | 14 | 211 | 0.0 | 0.0 | 0.00 | 0.58 | 0.58 | 91 | 1013.1 |
| 20260502222704 | 14 | 211 | 0.0 | 0.0 | 0.00 | 0.58 | 0.58 | 91 | 1013.1 |
| 20260502222205 | 14 | 211 | 0.0 | 0.0 | 0.00 | 0.58 | 0.58 | 91 | 1013.1 |
| 20260502221705 | 14 | 211 | 0.0 | 0.0 | 0.00 | 0.58 | 0.58 | 91 | 1013.2 |
| 20260502221204 | 14 | 211 | 0.0 | 0.0 | 0.00 | 0.58 | 0.58 | 91 | 1013.2 |
| 20260502220704 | 15 | 211 | 0.0 | 0.0 | 0.00 | 0.58 | 0.58 | 91 | 1013.3 |
| 20260502220203 | 15 | 211 | 0.0 | 0.0 | 0.00 | 0.58 | 0.58 | 91 | 1013.3 |
| 20260502215704 | 15 | 211 | 0.0 | 0.0 | 0.00 | 0.58 | 0.58 | 91 | 1013.4 |
| 20260502215203 | 15 | 211 | 0.0 | 0.0 | 0.00 | 0.58 | 0.58 | 91 | 1013.2 |
| 20260502214703 | 15 | 211 | 0.0 | 0.0 | 0.00 | 0.58 | 0.58 | 91 | 1013.3 |
| 20260502214205 | 15 | 211 | 0.0 | 0.0 | 0.00 | 0.58 | 0.58 | 91 | 1013.3 |
| 20260502213704 | 15 | 211 | 0.0 | 0.0 | 0.00 | 0.58 | 0.58 | 91 | 1013.4 |
| 20260502213204 | 15 | 211 | 0.0 | 0.0 | 0.00 | 0.58 | 0.58 | 91 | 1013.3 |
| 20260502212703 | 15 | 211 | 0.0 | 0.0 | 0.00 | 0.58 | 0.58 | 91 | 1013.4 |
| 20260502211206 | 15 | 211 | 0.0 | 0.0 | 0.00 | 0.58 | 0.58 | 91 | 1013.2 |
| 20260502210705 | 15 | 211 | 0.0 | 0.0 | 0.00 | 0.58 | 0.58 | 91 | 1013.3 |
| 20260502210205 | 15 | 211 | 0.0 | 0.0 | 0.00 | 0.58 | 0.58 | 91 | 1013.2 |
| 20260502205705 | 15 | 211 | 0.0 | 0.0 | 0.00 | 0.58 | 0.58 | 91 | 1013.2 |
| 20260502205205 | 15 | 211 | 0.0 | 0.0 | 0.00 | 0.58 | 0.58 | 91 | 1013.1 |
| 20260502204705 | 15 | 211 | 0.0 | 0.0 | 0.00 | 0.58 | 0.58 | 91 | 1013.1 |
| 20260502204205 | 15 | 212 | 0.0 | 0.0 | 0.00 | 0.58 | 0.58 | 91 | 1013.1 |
| 20260502203204 | 15 | 215 | 0.0 | 0.0 | 0.00 | 0.58 | 0.58 | 91 | 1012.9 |